Key statistics
Satellite CZ-6A DEB at a glance.
Uptime
317
Days in orbit
Revolutions
≈ 16.2
Per day
Orbit
LEO
Low Earth Orbit
Inclination
88.9
Latest
Satellite identification and parameters
Extended collection of information and parameters for CZ-6A DEB.
Object identification
Identified? True
Debris? True
Object name: CZ-6A DEB
International designator: 2024-140UJ
Object number (NORAD): 61321
Object ID (CCSDS): 61321
Country: PEOPLES REPUBLIC OF CHINA (PRC)
Current information (Y/N): Y
RCS size: SMALL
Orbital parameters
Decay date: June 19, 2025
Period: 88.905 minutes
Inclination: 88.925 deg
SMA: 6598.491 km
Apoapsis: 236.135 km
Periapsis: 204.577 km
RAAN: 309.7442 deg
Eccentricy: 0.0023913
Argument of periapsis: 295.4955 deg
Mean anomaly: 64.387 deg
Mean motion: 16.1970469 rev/day
Mean motion (dot): 0.14157989 rev/day2
B* drag term: 0.0073012 1/REarth
Two-line elements (TLE)
Creation date: June 15, 2025, 5:31 p.m.
Reference frame: TEME
Reference center: EARTH
Epoch: June 15, 2025, 4:27 a.m. UTC
TLE line 0: 0 CZ-6A DEB
TLE line 1: 1 61321U 24140UJ 25166.18571070 .14157989 -10215-5 73012-2 0 9997
TLE line 2: 2 61321 88.9250 309.7442 0023913 295.4955 64.3870 16.19704690 42730
Live tracking on map
Satellite CZ-6A DEB has decayed and is no longer in orbit. No tracking available.
In-orbit conjunctions
Satellite CZ-6A DEB has decayed and is no longer in orbit. No conjunctions available.
Associated space launch
18 Low Earth Orbit communication satellites with Ku, Q and V band payloads for the G60 constellation operated by Shanghai Spacecom Satellite Technology (SSST) with funding backed by the Shanghai local government. Initial constellation will consist of 1296 satellites by 2027 with long term plans to expand it to 12000 satellites.
CZ-6A DEB was lifted into orbit during the mission ‘Long March 6A | G60 Polar Group 01’, on board a Long March 6A space rocket.
The launch took place on Aug. 6, 2024, 6:42 a.m. from Launch Complex 9A.
For more information about the launch, click the button.
Long March 6A | G60 Polar Group 01
Agency: N/A
Status: Launch Successful
Launch date: Aug. 6, 2024, 6:42 a.m. UTC
Rocket: Long March 6A
Launch pad: Launch Complex 9A
Location: Taiyuan Satellite Launch Center, People's Republic of China
...
Latest news about this satellite
Brightness of first Chinese broadband constellation satellites alarms astronomers
The first satellites of a Chinese broadband constellation are significantly brighter than those of Western systems, posing a new challenge for astronomers.
Chinese rocket stage breaks up into cloud of more than 700 pieces of space debris
HELSINKI — A Chinese Long March 6A rocket’s upper stage has fragmented into a cloud of over 700 pieces of space debris, adding to concerns about long-term orbital safety. China […]
China's Thousand Sails Megaconstellation Kicks Off with Dangerous Debris Field
China's Thousand Sails Megaconstellation Kicks Off with Dangerous Debris Field
Newsletter sign-up
Weekly statistics, charts and insights to help you stay on top of the space industry.
